Regional Weather Roundup
Issued by NWS

Home | Current Version | Previous Version | Graphics & Text | Print | Product List | Glossary On
Versions: 1 2 3 4 5 6 7 8 9 10 11 12 13 14 15 16 17 18 19 20 21 22 23 24 25 26 27
000
ASUS45 KCYS 072310
RWRWY

WYOMING REGIONAL WEATHER ROUNDUP
NATIONAL WEATHER SERVICE CHEYENNE WY
400 PM MST WED DEC 07 2016

NOTE:  "FAIR" INDICATES FEW OR NO CLOUDS BELOW 12,000 FEET
WITH NO SIGNIFICANT WEATHER AND/OR OBSTRUCTIONS TO VISIBILITY.

WYZ001-080000-
YELLOWSTONE NATIONAL PARK

CITY           SKY/WX    TMP DP  RH WIND       PRES   REMARKS
LK YELLOWSTONE   N/A      4  -3  73 W6        30.10R WCI  -7
W YELLOWSTONE  NOT AVBL

$$
WYZ002>013-054>058-071-098>099-080000-
NORTHERN WYOMING

CITY           SKY/WX    TMP DP  RH WIND       PRES   REMARKS
JACKSON        FAIR       9   3  78 CALM      30.18R
CODY           FAIR       3  -3  76 S5        30.32R WCI  -6
GREYBULL       FAIR      11   0  61 SE9       30.41R WCI  -2
WORLAND        FAIR      10   0  63 E5        30.39R WCI   2
SHERIDAN       FAIR       3  -6  66 SW5       30.41R WCI  -6
BUFFALO        FAIR       0  -9  65 CALM      30.33R
GILLETTE       FAIR       2  -4  76 NW10      30.36R WCI -14
HULETT         MOCLDY     5  -4  66 W3        30.36R
NEWCASTLE      CLOUDY     3  -6  66 NW13      30.38R WCI -14

$$
WYZ014>020-022>026-101>103-080000-
CENTRAL WYOMING

CITY           SKY/WX    TMP DP  RH WIND       PRES   REMARKS
BIG PINEY      FAIR      14  -1  51 N5        30.15R WCI   6
PINEDALE       FAIR      12   0  57 E5        30.16R WCI   4
DUBOIS         FAIR       5  -4  66 SE8       30.10R WCI  -8
LANDER         FAIR       9   0  67 CALM      30.24R
RIVERTON       CLOUDY    11   0  61 E3        30.26R
CASPER         FAIR       2  -5  72 SW6       30.28R WCI  -9
DOUGLAS        FAIR       2  -6  69 NW7       30.32R WCI -11

$$
WYZ021-027>030-104>119-080000-
SOUTHERN WYOMING

CITY           SKY/WX    TMP DP  RH WIND       PRES   REMARKS
EVANSTON       FAIR      15   1  53 W6        30.14R WCI   6
FORT BRIDGER   FAIR      16   3  56 NW3       30.17S
ROCK SPRINGS   FAIR      10   1  67 CALM      30.17R
DIXON          FAIR      14  -2  49 W3        30.22R
RAWLINS        FAIR       9  -4  55 W8        30.16R WCI  -3
SARATOGA       FAIR       5   0  78 CALM      30.16R
LARAMIE        FAIR       2  -6  69 N8        30.11R WCI -12
CHEYENNE       FAIR       4  -5  66 N10       30.18R WCI -11
TORRINGTON     FAIR       9  -4  55 NW9       30.35R WCI  -4
PINE BLUFFS    FAIR       7  -2  66 N17       30.27R WCI -12

$$




USA.gov is the U.S. government's official web portal to all federal, state and local government web resources and services.